Location: Crescent
(42.8242°N, 73.7329°W)
Time: 16:52:38
(UTC+00:00)

Tiros 1 - All Passes

Search period start: 16 February 2026 00:00
Search period end: 26 February 2026 00:00
Orbit: 618 x 649 km, 48.4° (Epoch: 15 February)

Date Brightness Start Highest point End Pass type
(mag) Time Alt. Az. Time Alt. Az. Time Alt. Az.
16 Feb - 12:32:42 10° S 12:35:23 15° SE 12:38:02 10° E daylight
16 Feb - 14:12:06 10° SW 14:16:39 70° SSE 14:21:12 10° ENE daylight
16 Feb - 15:54:19 10° W 15:58:44 47° NNW 16:03:08 10° ENE daylight
16 Feb - 17:36:50 10° WNW 17:41:13 44° N 17:45:35 10° E daylight
16 Feb - 19:18:49 10° WNW 19:23:23 82° SSW 19:27:56 10° ESE daylight
16 Feb - 21:01:34 10° W 21:04:45 19° SW 21:07:57 10° S daylight
17 Feb - 12:52:38 10° SSW 12:56:40 30° SE 13:00:41 10° ENE daylight
17 Feb - 14:33:44 10° WSW 14:38:19 72° NNW 14:42:53 10° ENE daylight
17 Feb - 16:16:19 10° WNW 16:20:39 41° N 16:24:59 10° ENE daylight
17 Feb - 17:58:35 10° WNW 18:03:05 57° NNE 18:07:34 10° E daylight
17 Feb - 19:40:36 10° WNW 19:44:56 45° SW 19:49:16 10° SE daylight
18 Feb - 11:35:10 10° SSE 11:36:57 12° SE 11:38:45 10° ESE daylight
18 Feb - 13:13:36 10° SW 13:18:08 58° SSE 13:22:38 10° ENE daylight
18 Feb - 14:55:39 10° W 15:00:07 50° NNW 15:04:35 10° ENE daylight
18 Feb - 16:38:13 10° WNW 16:42:35 42° N 16:46:56 10° ENE daylight
18 Feb - 18:20:15 10° WNW 18:24:50 86° NNE 18:29:24 10° ESE daylight
18 Feb - 20:02:43 10° W 20:06:20 23° SW 20:09:55 10° S daylight
19 Feb - 11:54:26 10° SSW 11:58:12 25° SE 12:01:58 10° E daylight
19 Feb - 13:35:08 10° WSW 13:39:45 83° NNW 13:44:21 10° ENE daylight
19 Feb - 15:17:39 10° WNW 15:22:01 42° N 15:26:22 10° ENE daylight
19 Feb - 17:00:01 10° WNW 17:04:28 52° NNE 17:08:56 10° E daylight
19 Feb - 18:41:58 10° WNW 18:46:26 54° SSW 18:50:52 10° SE daylight
19 Feb - 20:26:22 10° WSW 20:27:33 11° SW 20:28:45 10° SW daylight
20 Feb - 12:15:10 10° SW 12:19:37 48° SE 12:24:02 10° ENE daylight
20 Feb - 13:56:58 10° W 14:01:30 55° NNW 14:06:01 10° ENE daylight
20 Feb - 15:39:36 10° WNW 15:43:56 41° N 15:48:16 10° ENE daylight
20 Feb - 17:21:42 10° WNW 17:26:16 75° NNE 17:30:48 10° ESE daylight
20 Feb - 19:03:58 10° W 19:07:52 28° SW 19:11:45 10° SSE daylight
21 Feb - 10:56:20 10° S 10:59:45 21° SE 11:03:09 10° E visible
21 Feb - 12:36:33 10° WSW 12:41:11 86° SSE 12:45:47 10° ENE daylight
21 Feb - 14:18:58 10° W 14:23:23 43° N 14:27:45 10° ENE daylight
21 Feb - 16:01:25 10° WNW 16:05:51 48° NNE 16:10:16 10° E daylight
21 Feb - 17:43:22 10° WNW 17:47:54 66° SSW 17:52:25 10° SE daylight
21 Feb - 19:26:46 10° W 19:29:08 14° SW 19:31:30 10° SSW daylight
22 Feb - 11:16:46 10° SSW 11:21:06 40° SE 11:25:24 10° ENE daylight
22 Feb - 12:58:18 10° W 13:02:53 62° NNW 13:07:27 10° ENE daylight
22 Feb - 14:40:56 10° WNW 14:45:18 40° N 14:49:38 10° ENE daylight
22 Feb - 16:23:06 10° WNW 16:27:40 66° NNE 16:32:12 10° ESE daylight
22 Feb - 18:05:15 10° WNW 18:09:23 35° SW 18:13:30 10° SSE daylight
23 Feb - 09:58:22 10° S 10:01:17 17° SE 10:04:12 10° E visible
23 Feb - 11:37:59 10° SW 11:42:37 73° SSE 11:47:12 10° ENE daylight
23 Feb - 13:20:16 10° W 13:24:43 46° N 13:29:09 10° ENE daylight
23 Feb - 15:02:47 10° WNW 15:07:13 45° N 15:11:36 10° E daylight
23 Feb - 16:44:47 10° WNW 16:49:21 78° SSW 16:53:54 10° ESE daylight
23 Feb - 18:27:39 10° W 18:30:42 18° SW 18:33:43 10° S daylight
24 Feb - 10:18:26 10° SSW 10:22:35 33° SE 10:26:43 10° ENE visible
24 Feb - 11:59:39 10° WSW 12:04:16 70° NNW 12:08:52 10° ENE daylight
24 Feb - 13:42:15 10° WNW 13:46:38 41° N 13:50:58 10° ENE daylight
24 Feb - 15:24:30 10° WNW 15:29:04 59° NNE 15:33:34 10° E daylight
24 Feb - 17:06:34 10° WNW 17:10:53 42° SW 17:15:10 10° SE daylight
25 Feb - 09:00:37 10° SSE 09:02:50 13° SE 09:05:02 10° ESE visible
25 Feb - 10:39:28 10° SW 10:44:03 62° SSE 10:48:36 10° ENE visible
25 Feb - 12:21:34 10° W 12:26:05 49° NNW 12:30:34 10° ENE daylight
25 Feb - 14:04:09 10° WNW 14:08:33 43° N 14:12:55 10° E daylight
25 Feb - 15:46:11 10° WNW 15:50:47 90° NE 15:55:20 10° ESE daylight
25 Feb - 17:28:44 10° W 17:32:14 22° SW 17:35:43 10° S daylight
